SL-14 DEB, 45295

Orbit data source: Space-Track

SL-14 DEB, 45295 is space debris in LEO originally from a launch on Thu, 15 Aug 1991 UTC launched from the Plesetsk Missile And Space Complex (PKMTR). Debris objects in space refer to the collection of defunct objects orbiting the Earth. Examples of debris include non-operational satellites, rocket bodies, and fragments generated from explosions, collisions, or faulty payload assembly.

Loading next visibility...
Identifier
45295, 1991-056AH
Orbit
LEO
Country
Flag of CISCIS
Related business
Manufacturer
Unknown
Mission
Spacecraft
Bus & Motor
Unknown
Mass
Unknown
Launch date (UTC)
1991-08-15 (35 years ago)
Launch vehicle
Unknown
Launch site
Plesetsk Missile And Space Complex (PKMTR)
Object type
Payload
Rocket body
Debris
Shape & HBR
Unknown shape, 0.1 m
Radar Cross Section
Small (<0.1 m²)

Expand to show TLE details & history
Last TLE update: 11 hours ago

TLE from 11 hours ago
0 SL-14 DEB
1 45295U 91056AH  26249.39766012  .00000860  00000-0  15300-2 0  9998
2 45295  82.5707  26.4016 0076768   7.4826 352.7435 13.40013242318625
Epoch: 2026-09-06T09:32Z
TLE epoch observation values (Epoch: 2026-09-06T09:32:37.834Z)
Latitude
-0.00003°
Longitude
-102.24941°
Altitude
1,055.048 km
Speed
7.352 km/s
True Right ascension
01h 45m 36s
True Declination
0° 00' 00"
Sunlit
Object was in full shadow at epoch
Visualization orbit readout
Latitude
Unknown
Longitude
Unknown
Altitude
Unknown
Speed
Unknown
Apparent Right ascension
Unknown
Apparent Declination
Unknown
Sunlit
N/A
Visualization observer readout
Local Sidereal Time
12:53:21
Azimuth
Unknown
Elevation
Unknown
Doppler factor
Unknown
Orbital elements
Apogee altitude
1,163.899 km
Perigee altitude
1,048.984 km
Semi-major axis
7,484.578 km
Eccentricity
0.00768
Inclination
82.5707°
RAAN
26.4016°
Arg. of periapsis
7.4826°
True anomaly
352.63132°
Mean anomaly
352.7435°
Eccentric anomaly
352.68752°
Mean motion
3.35191 °/min
Orbital period
107.4 mins
BSTAR
0.00153
Loading maneuver chart data...
Computing Atmospheric mass density...
Loading historical data...
Loading historical data...
Loading historical data...
Loading historical data...
Loading historical data...
Loading historical data...
Loading historical data...

Documentation

Showing up to 5 results
|